Weather History for Locarno-Monti, Switzerland

Change the Weather History Date:

Wednesday, March 27, 2013

  Actual Average Record
Temperature  
Mean Temperature 40 °F -  
Max Temperature 42 °F 60 °F - ()
Min Temperature 37 °F 40 °F - ()
Degree Days  
Heating Degree Days 26    
Moisture  
Dew Point 33 °F    
Average Humidity 67    
Maximum Humidity 75    
Minimum Humidity 54    
Precipitation  
Precipitation 0.00 in - - ()
Sea Level Pressure  
Sea Level Pressure 29.76 in    
Wind  
Wind Speed 3 mph ()    
Max Wind Speed 5 mph    
Max Gust Speed -    
Visibility 2.3 miles    
Events      
T = Trace of Precipitation, MM = Missing Value Source: Averaged Metar Reports

Daily Weather History Graph

Daily Weather History Graph

Search for Another Location

Airport:

Trip Planner

Search our weather history database for the weather conditions in past years. The results will help you decide how hot, cold, wet, or windy it might be!

Date:

Astronomy

Mar. 27, 2013 Rise Set
Actual Time 6:14 AM CET 6:46 PM CET
Civil Twilight 5:44 AM CET 7:17 PM CET
Nautical Twilight 5:08 AM CET 7:52 PM CET
Astronomical Twilight 4:31 AM CET 8:29 PM CET
Moon 7:15 PM CET (3/27) 5:54 AM CET (3/27)
Length of Visible Light 13h 32m
Length of Day
12h 32m
Full, 100% of the Moon is Illuminated
Mar 27
Full
Apr 3
Last Quarter
Apr 10
New
Apr 18
First Quarter
Apr 25
Full

Hourly Weather History & Observations

Time (CET) Temp. Dew Point Humidity Pressure Visibility Wind Dir Wind Speed Gust Speed Precip Events Conditions
12:00 AM 39 °F 32 °F 67% 29.71 in - NNW 2.3 mph - -  
1:00 AM 38 °F 33 °F 74% 29.71 in - North 1.2 mph - -  
2:00 AM 39 °F 32 °F 69% 29.70 in - WNW 1.2 mph - -  
3:00 AM 38 °F 33 °F 74% 29.70 in - WSW 1.2 mph - -  
5:00 AM 38 °F 33 °F 75% 29.70 in - WNW 3.5 mph - -  
6:00 AM 38 °F 33 °F 74% 29.71 in - West 3.5 mph - -  
7:00 AM 38 °F 33 °F 74% 29.72 in 3 mi West 4.6 mph - -   Mist
8:00 AM 38 °F 32 °F 72% 29.73 in - WNW 4.6 mph - -  
9:00 AM 39 °F 33 °F 70% 29.74 in - West 4.6 mph - -  
11:00 AM 39 °F 32 °F 69% 29.77 in - West 4.6 mph - -  
12:00 PM 40 °F 33 °F 69% 29.77 in - WSW 3.5 mph - -  
1:00 PM 42 °F 34 °F 64% 29.77 in 2 mi SSW 4.6 mph - -   Mist
2:00 PM 41 °F 33 °F 64% 29.77 in - WSW 4.6 mph - -  
3:00 PM 42 °F 34 °F 63% 29.77 in - SW 3.5 mph - -  
5:00 PM 42 °F 33 °F 59% 29.78 in - West 3.5 mph - -  
6:00 PM 42 °F 31 °F 54% 29.79 in - West 3.5 mph - -  
7:00 PM 41 °F 32 °F 60% 29.82 in 2 mi West 3.5 mph - -   Haze
8:00 PM 41 °F 31 °F 59% 29.83 in - WNW 3.5 mph - -  
9:00 PM 41 °F 32 °F 59% 29.86 in - WNW 2.3 mph - -  
11:00 PM 40 °F 33 °F 67% 29.88 in - WNW 2.3 mph - -